Location: Aula-Vintri
(58.3875°N, 22.4322°E)
Time: 20:50:11
(UTC+00:00)

Daily predictions for brighter satellites

Satellite Brightness Start Highest point End
(mag) Time Altitude Azimuth Time Altitude Azimuth Time Altitude Azimuth
Cosmos 2181 Rocket 4.2 16:00:50 10° S 16:07:17 88° E 16:13:47 10° NNE
GEOS 3 Rocket 4.4 16:03:22 10° ENE 16:08:11 42° N 16:13:03 10° WNW
Cosmos 2263 Rocket 2.3 16:03:05 10° SSW 16:08:40 60° ESE 16:14:14 10° NE
Cosmos 1626 Rocket 4.4 16:04:41 10° NNW 16:08:58 57° W 16:13:17 10° S
CSL-04 Rocket 3.8 16:06:42 10° SE 16:12:11 66° ENE 16:17:39 10° NNW
Cosmos 1271 Rocket 3.0 16:08:21 10° N 16:12:12 50° ENE 16:16:04 10° SE
CZ-2D R/B 3.9 16:09:52 10° SE 16:13:22 34° ENE 16:16:55 10° N
H-2A R/B 3.4 16:10:51 10° E 16:14:50 22° NE 16:18:52 10° N
Cosmos 1953 3.2 16:11:47 10° SSE 16:15:20 29° E 16:18:53 10° NNE
Cosmos 2285 Rocket 4.1 16:10:50 10° NNW 16:17:21 89° ENE 16:23:48 10° SSE
Cosmos 1833 Rocket 3.3 16:12:45 10° NW 16:18:05 41° NE 16:23:23 10° ESE
Cosmos 1953 Rocket 3.7 16:13:51 10° N 16:18:12 53° ENE 16:22:29 10° SSE
Cosmos 1825 Rocket 3.5 16:14:05 10° N 16:18:27 70° ENE 16:22:48 10° SSE
Cosmos 1758 3.6 16:15:22 10° SSE 16:19:10 46° E 16:23:00 10° NNE
Cosmos 1703 4.1 16:17:26 10° N 16:21:01 31° ENE 16:24:33 10° SE
SJ-6B 4.4 16:19:31 10° E 16:22:04 17° NE 16:24:36 10° NNE
SJ 16-02 3.4 16:20:30 10° N 16:22:46 14° NNE 16:25:01 10° NE
COSMOS 2406 3.3 16:17:27 10° NW 16:23:13 63° NE 16:28:57 10° SE
Cosmos 2227 4.3 16:18:32 10° SW 16:24:14 89° SE 16:30:00 10° NE
USA 116 4.4 16:23:44 10° NE 16:26:15 22° E 16:28:45 10° SSE
ATLAS CENTAUR R/B 2.4 16:21:32 10° W 16:26:20 51° NNW 16:30:54 10° NE
Cosmos 2227 Rocket 3.6 16:23:17 10° W 16:28:30 35° NNW 16:33:44 10° NE
Cosmos 2082 Rocket 2.9 16:25:38 10° NW 16:31:01 39° NNE 16:36:10 11° E
Cosmos 332 Rocket 3.8 16:28:08 10° SSW 16:32:56 66° ESE 16:37:47 10° NE
FengYun 1-2 T 4.4 16:28:06 10° SSE 16:33:47 82° WSW 16:39:27 10° NNW
Cosmos 1939 Rocket 3.1 16:30:23 10° SE 16:34:12 47° ENE 16:38:07 10° N
ARGOS 4.2 16:30:26 10° ESE 16:34:53 27° NE 16:39:22 10° N
Cosmos 2297 Rocket 3.6 16:29:48 10° W 16:34:54 33° NNW 16:40:02 10° NE
Cosmos 1110 Rocket 4.1 16:30:03 10° SSW 16:35:23 84° WNW 16:40:44 10° NNE
CZ-4C R/B 3.8 16:29:57 10° WNW 16:36:34 50° SW 16:44:09 10° SSE
Cosmos 1818 3.9 16:32:20 10° WSW 16:37:49 71° NNW 16:43:19 10° NE
Cosmos 1626 3.2 16:34:54 10° NNW 16:38:32 51° W 16:42:09 10° S
SL-24 R/B - RUBIN 2 4.1 16:35:06 10° SSW 16:40:02 61° SE 16:45:39 10° NE
Cosmos 1606 Rocket 3.9 16:35:53 10° SSE 16:40:03 44° E 16:44:13 10° NNE
Cosmos 1758 Rocket 3.8 16:35:48 10° NNW 16:40:13 74° W 16:44:40 10° S
Lacrosse 5 rocket 2.7 16:38:54 10° W 16:42:13 31° SSW 16:45:40 10° SSE
Unknown 4.4 16:40:25 10° WSW 16:42:35 22° S 16:44:42 10° SE
HJ-1C 3.9 16:42:27 10° SE 16:45:39 40° ENE 16:48:51 10° N
CZ-4 R/B 2.1 16:44:57 10° S 16:49:05 62° WSW 16:53:18 10° NNW
CSL-04 Debris 4.4 16:44:10 10° SSE 16:49:37 76° WSW 16:55:09 10° NNW
SKYMED 2 3.5 16:48:09 10° NNE 16:52:31 69° ESE 16:56:52 10° S
Cosmos 1726 3.0 16:50:45 10° SSE 16:53:54 27° E 16:57:02 10° NNE
Unknown 4.2 16:51:07 10° WSW 16:53:54 29° S 16:55:53 16° SE
Lacrosse 5 1.9 16:51:08 10° W 16:56:13 76° S 17:00:04 17° ESE
COBE Rocket 4.0 16:51:08 10° NNE 16:56:22 87° E 17:01:33 10° SSW
Timation 1 Rocket 4.3 16:51:02 10° SSW 16:57:01 81° SE 17:03:01 10° NE
Cosmos 1328 3.7 16:53:29 10° N 16:57:31 68° ENE 17:01:29 10° SSE
Envisat 4.2 16:54:31 10° S 16:59:25 47° W 17:04:21 10° NNW
Meteor 1-16 Rocket 4.4 16:55:08 10° SSE 17:00:25 47° E 17:05:36 10° NNE
Cosmos 1607 3.9 16:55:30 10° SW 17:01:40 83° SE 17:07:52 10° NE
YAOGAN 1 3.3 17:01:56 10° S 17:06:11 56° WSW 17:10:28 10° NNW
Cosmos 2058 4.1 17:03:54 10° N 17:07:27 26° ENE 17:08:47 22° E
USA 186 2.3 17:07:28 28° E 17:07:44 29° ENE 17:10:09 10° N
Cosmos 1844 Rocket 3.0 17:02:51 10° S 17:08:12 45° ESE 17:13:33 10° NE
Cosmos 1470 3.3 17:06:28 10° SSW 17:10:26 64° WNW 17:14:26 10° N
Cosmos 1908 3.9 17:10:45 10° SSE 17:14:15 32° E 17:17:46 10° NNE
Cosmos 1605 Rocket 3.9 17:08:38 10° NNW 17:14:57 76° ENE 17:21:08 10° SSE
Cosmos 1356 3.9 17:15:20 10° SSE 17:18:32 36° E 17:21:44 10° NNE
FREGAT/IRIS 2.4 17:17:36 31° SE 17:18:40 56° ENE 17:21:27 10° N
Cosmos 2278 Rocket 4.1 17:15:30 10° SE 17:16:03 12° SE 17:16:03 12° SE
Cosmos 1459 Rocket 4.4 17:14:13 10° N 17:20:02 42° ENE 17:24:05 19° SE
Cosmos 1242 Rocket 2.9 17:16:26 10° NNW 17:20:07 66° WSW 17:23:47 10° S
Cosmos 1844 4.0 17:15:39 10° S 17:21:04 45° ESE 17:26:33 10° NE
Cosmos 371 Rocket 4.0 17:16:24 10° SW 17:21:08 56° NW 17:25:54 10° NNE
Cosmos 1726 Rocket 3.5 17:18:42 10° S 17:23:07 83° E 17:27:32 10° NNE
Cosmos 1076 Rocket 3.9 17:19:49 10° N 17:24:01 43° ENE 17:26:00 26° ESE
Cosmos 1727 Rocket 4.3 17:21:03 10° SSE 17:26:43 40° E 17:32:25 10° NNE
Cosmos 2058 Rocket 2.9 17:23:15 10° S 17:27:34 65° E 17:31:55 10° NNE
Nadezhda 3 Rocket 4.2 17:21:26 10° SSW 17:27:43 77° WNW 17:34:07 10° NNE
Cosmos 2084 Rocket 3.6 17:24:28 10° WNW 17:28:56 67° NNE 17:30:56 31° E
Meteor 2-10 3.9 17:24:17 10° S 17:29:15 57° E 17:34:12 10° NNE
Cosmos 304 Rocket 3.8 17:24:52 10° SSW 17:29:42 83° WNW 17:34:32 10° NNE
Unknown 4.3 17:26:56 10° SW 17:30:17 32° SSE 17:31:02 29° SE
ADEOS Rocket 4.0 17:23:12 10° NNE 17:30:18 36° E 17:37:09 10° SSE
Unknown 4.1 17:27:25 10° WSW 17:30:39 34° S 17:31:27 30° SSE
Cosmos 1461 2.7 17:27:43 10° NW 17:31:46 86° NE 17:33:33 33° SE
Cosmos 292 Rocket 4.3 17:27:48 10° S 17:32:03 33° ESE 17:36:18 10° NE
FALCON 9 DEB 4.1 17:28:59 10° WSW 17:32:10 34° S 17:32:55 30° SSE
Cosmos 1934 Rocket 4.5 17:27:20 10° NNW 17:33:33 65° W 17:39:48 10° S
MONITOR-E 4.1 17:32:07 21° S 17:33:50 69° WSW 17:36:39 10° NNW
SPOT 3 Rocket 3.5 17:29:50 16° SE 17:33:58 66° ENE 17:39:09 10° NNW
SL-08 RB Rocket 4.2 17:32:53 30° ESE 17:34:24 40° ENE 17:38:40 10° N
SL-4 R/B 4.4 17:33:11 10° WSW 17:34:44 12° SW 17:36:15 10° S
Resurs 01 Rocket 2.4 17:34:25 30° E 17:35:23 34° ENE 17:39:25 10° N
Cosmos 2173 Rocket 4.2 17:32:07 10° N 17:38:19 52° ENE 17:42:13 22° SE
COSMO-SKYMED 1 3.5 17:36:23 10° N 17:40:38 51° WNW 17:44:51 10° SW
ATLAS 5 CENTAUR R/B 1.8 17:37:22 10° SSW 17:41:42 54° SE 17:43:53 30° ENE
Ariane Rocket 3.6 17:36:49 10° S 17:41:51 58° WSW 17:46:55 10° NNW
Cosmos 724 4.3 17:36:22 10° SW 17:42:27 70° SE 17:47:38 14° NE
ASTEX 1 4.3 17:38:53 10° N 17:43:40 52° WNW 17:48:27 10° SSW
Cosmos 2228 3.4 17:39:51 10° SSW 17:44:13 65° WNW 17:48:35 10° N
MetOp-A 4.4 17:42:20 30° ESE 17:44:33 47° ENE 17:49:41 10° N
GEOS 3 Rocket 4.0 17:43:20 28° ENE 17:45:45 51° NNE 17:50:46 10° WNW
CZ-2C R/B 4.0 17:43:01 10° NNE 17:47:15 39° E 17:47:28 39° ESE
Okean 3 Rocket 4.1 17:44:44 10° N 17:49:04 40° ENE 17:49:33 38° E
Unknown 4.2 17:48:15 10° WSW 17:51:21 32° S 17:51:25 32° S
Cosmos 1953 3.6 17:47:44 10° SW 17:51:38 42° WNW 17:55:33 10° N
Cosmos 1725 Rocket 4.4 17:46:39 10° N 17:52:33 41° ENE 17:54:30 33° ESE
Cosmos 2100 Rocket 3.9 17:46:20 10° N 17:52:34 65° ENE 17:56:30 23° SSE
Cosmos 2263 Rocket 3.2 17:47:25 10° WSW 17:52:51 45° NW 17:58:17 10° NE
H-2A R/B 2.0 17:50:09 23° SSE 17:53:30 75° ENE 17:58:56 10° NNW
Cosmos 1992 Rocket 3.9 17:49:24 10° SSW 17:54:40 89° NW 17:59:56 10° NNE
Unknown 4.2 17:51:29 10° WSW 17:54:42 34° S 17:54:42 34° S
SJ-6B 2.7 17:54:42 35° SSE 17:56:16 87° WSW 18:00:06 10° NNW
Falcon 9 debris 4.2 17:53:23 10° WSW 17:56:26 32° S 17:56:26 32° S
Cosmos 1892 3.8 17:53:31 10° N 17:56:12 29° NE 17:56:12 29° NE
Cosmos 921 Rocket 2.9 17:52:57 10° SSW 17:57:27 77° ESE 18:01:57 10° NNE
CZ-2C R/B 3.4 17:54:49 31° SE 17:57:32 60° ENE 18:03:15 10° NNW
Cosmos 1937 Rocket 4.0 17:52:40 10° NNW 17:57:36 42° NE 17:58:43 37° ENE
Cosmos 1833 Rocket 2.9 17:56:48 10° NW 18:02:25 70° WSW 18:05:42 25° SSE
SJ 16-02 2.0 17:58:32 10° NNW 18:02:39 37° NE 18:02:47 36° NE
Resurs 1-3 3.5 18:03:41 52° ESE 18:04:30 65° ENE 18:08:54 10° NNW
ATLAS CENTAUR R/B 2.7 18:01:34 10° WNW 18:06:05 38° N 18:07:42 29° NE
Cosmos 1766 Rocket 4.1 18:01:59 10° N 18:05:46 41° NE 18:05:46 41° NE
COSMOS 2406 4.5 18:02:02 10° NW 18:07:22 39° WSW 18:12:41 10° S
Cosmos 2151 3.5 18:06:07 10° N 18:09:51 44° NE 18:09:51 44° NE
Cosmos 990 Rocket 4.1 18:06:39 10° NNW 18:11:48 59° NE 18:12:46 50° E
NOSS 3-3 (A) 4.5 18:06:03 10° WNW 18:13:11 76° SW 18:17:08 33° SE
NOSS 3-3 (C) 4.5 18:06:09 10° WNW 18:13:17 77° SW 18:17:13 33° SE
Cosmos 2227 Rocket 4.1 18:09:39 10° WNW 18:14:10 23° N 18:18:06 12° NE
ARGOS 3.1 18:11:37 27° SSE 18:14:40 86° WSW 18:20:09 10° NNW
Cosmos 1825 4.2 18:11:57 10° N 18:13:19 17° NNE 18:13:19 17° NNE
SPOT 5 4.3 18:15:12 26° NE 18:15:17 26° NE 18:19:41 10° N
Cosmos 2082 Rocket 2.3 18:09:52 10° NW 18:15:37 76° WSW 18:18:01 36° SSE
Spot 2 Rocket 3.7 18:15:15 47° ENE 18:15:40 48° ENE 18:20:33 10° N
Cosmos 2084 4.0 18:11:53 10° SW 18:15:24 45° S 18:15:24 45° S
Cosmos 2061 Rocket 3.9 18:12:03 10° N 18:18:23 69° ENE 18:20:40 40° SE
Cosmos 2297 Rocket 4.0 18:16:09 10° NW 18:20:37 23° N 18:24:10 13° NE
Cosmos 2016 Rocket 3.9 18:14:52 10° N 18:21:05 68° ENE 18:23:11 43° SE
Cosmos 1818 4.5 18:16:52 10° WNW 18:22:06 43° N 18:24:41 26° NE
Terra 3.5 18:24:23 20° NE 18:24:23 20° NE 18:27:15 10° N
SL-08 R/B 4.4 18:17:51 10° N 18:24:00 62° ENE 18:25:28 49° SE
Cosmos 1408 Rocket 4.4 18:21:26 10° N 18:24:33 36° NNE 18:24:33 36° NNE
Cosmos 489 Rocket 4.3 18:20:35 10° SSW 18:26:48 79° ESE 18:33:02 10° NNE
Cosmos 1726 3.5 18:25:35 10° SW 18:29:01 38° WNW 18:32:29 10° N
Cosmos 1932 4.4 18:24:34 10° SW 18:30:56 88° NNW 18:35:13 23° NE
Cosmos 1812 Rocket 3.5 18:35:15 79° NNE 18:35:15 79° NNE 18:39:29 10° NNE
SL-27 R/B 4.4 18:32:04 10° NNW 18:33:31 21° N 18:33:31 21° N
Cosmos 1898 Rocket 3.3 18:30:01 10° NNW 18:35:18 83° ENE 18:35:55 70° SE
USA 186 4.0 18:39:11 21° W 18:39:11 21° W 18:40:56 10° NW
Lacrosse 5 2.4 18:34:05 10° W 18:38:54 45° SSW 18:39:16 44° SSW
ERS-1 Rocket 3.8 18:42:27 38° NE 18:42:27 38° NE 18:46:29 10° N
Cosmos 2058 3.4 18:40:33 10° NNW 18:44:42 56° W 18:44:59 55° WSW
Meteor 2-3 Rocket 4.2 18:39:24 10° N 18:44:36 44° NE 18:44:36 44° NE
In-Cosmos 22 Rocket 4.2 18:41:38 10° NNW 18:46:57 70° W 18:48:21 49° SSW
Cosmos 1844 Rocket 3.3 18:46:31 10° WSW 18:52:05 56° NW 18:57:39 10° NE
Cosmos 2150 Rocket 4.4 18:50:06 10° NNW 18:55:14 52° NE 18:55:14 52° NE
SPOT 1/Viking Rocket 4.1 18:56:49 47° NNE 18:56:49 47° NNE 19:01:01 10° N
MetOp-B 4.0 18:58:43 86° E 18:58:46 86° ENE 19:04:10 10° NNW
Cosmos 1125 Rocket 4.4 18:54:02 10° NNW 18:58:35 37° NNE 18:58:35 37° NNE
Cosmos 2278 Rocket 4.1 18:56:56 10° SSW 19:08:14 10° NE 19:08:18 10° NE
Cosmos 1844 4.3 18:59:32 10° WSW 19:05:11 57° NW 19:10:56 10° NE
Cosmos 1802 Rocket 4.4 19:02:10 10° NNW 19:08:31 61° W 19:11:08 35° SSW
Resurs 01 Rocket 2.5 19:12:00 47° W 19:12:00 47° W 19:16:08 10° NNW
Cosmos 292 Rocket 4.4 19:07:28 10° SW 19:12:08 55° NW 19:16:51 10° NNE
Cosmos 1238 Rocket 4.0 19:05:48 10° N 19:12:20 68° ENE 19:12:21 68° ENE
ADEOS Rocket 3.6 19:08:36 10° NNE 19:16:26 79° WNW 19:24:01 10° SSW
Meteor 2-1 Rocket 4.3 19:22:06 69° N 19:22:06 69° N 19:27:02 10° NNE
Cosmos 2298 Rocket 4.4 19:16:28 10° NNW 19:20:54 60° N 19:20:54 60° N
GEOS 3 Rocket 3.8 19:24:27 65° WNW 19:24:27 65° WNW 19:28:53 10° NW
ATLAS 5 CENTAUR R/B 2.5 19:21:46 10° W 19:25:26 51° WNW 19:25:26 51° WNW
CZ-2C R/B 4.0 19:26:24 10° NNE 19:29:13 30° NNE 19:29:13 30° NNE
H-2A R/B 4.0 19:30:48 18° SW 19:33:31 26° W 19:38:01 10° NNW
Cosmos 2123 Rocket 4.0 19:34:35 74° NNE 19:34:35 74° NNE 19:40:17 10° NNE
Cosmos 2263 Rocket 4.2 19:33:33 10° WNW 19:38:09 25° NNW 19:41:51 14° NE
Cosmos 1725 Rocket 4.5 19:32:09 10° NNW 19:38:13 55° W 19:39:11 50° SW
Cosmos 1937 Rocket 4.3 19:34:44 10° NW 19:38:53 46° W 19:38:53 46° W
SJ 16-02 3.0 19:37:09 10° NW 19:39:46 31° WNW 19:39:46 31° WNW
ATLAS CENTAUR R/B 3.2 19:41:05 10° NW 19:43:53 33° NW 19:43:53 33° NW
Cosmos 2233 Rocket 4.2 19:41:22 10° NNW 19:47:27 68° W 19:47:27 68° W
SPOT 5 3.9 19:54:26 48° NNW 19:54:26 48° NNW 19:58:15 10° NNW
Cosmos 2082 Rocket 4.2 19:54:50 10° NW 19:58:52 20° W 19:59:52 19° WSW
Cosmos 2227 Rocket 3.7 19:55:02 10° NW 19:59:54 29° NNE 19:59:54 29° NNE
Timation 2 Rocket 4.4 19:54:16 10° NW 19:59:06 53° N 19:59:06 53° N
Terra 3.5 20:03:17 30° NNW 20:03:17 30° NNW 20:05:42 10° NNW
Cosmos 2297 Rocket 3.6 20:01:23 10° NW 20:05:58 30° NNE 20:05:58 30° NNE
Lacrosse 5 4.5 20:17:47 10° W 20:18:27 12° W 20:18:27 12° W
Cosmos 2278 Rocket 4.1 20:50:05 23° NNE 20:50:05 23° NNE 20:52:31 10° NE
CZ-2C R/B 4.3 21:06:59 10° N 21:10:43 32° NNW 21:10:43 32° NNW
Cosmos 2263 Rocket 4.1 21:19:15 10° NW 21:23:30 25° N 21:23:30 25° N
SL-16 R/B 4.3 21:41:33 24° NE 21:41:35 24° NE 21:46:26 10° N
Cosmos 2227 Rocket 4.1 21:39:20 10° NW 21:41:42 25° NNW 21:41:42 25° NNW
Cosmos 2369 Rocket 4.5 21:51:13 18° NE 21:51:13 18° NE 21:52:32 10° NE
Cosmos 2297 Rocket 4.2 21:45:37 10° NW 21:47:45 24° NNW 21:47:45 24° NNW
Cosmos 2278 Rocket 4.2 22:31:55 23° NNW 22:32:45 24° N 22:37:19 10° NE
Cosmos 1943 Rocket 4.1 22:44:04 25° NNE 22:44:04 25° NNE 22:46:41 10° NE
Cosmos 2344 4.0 22:55:21 64° NE 22:55:21 64° NE 23:03:16 10° ENE
ATLAS 3B R/B 3.7 23:07:44 38° NE 23:07:44 38° NE 23:11:50 10° ENE
Cosmos 2263 Rocket 4.4 23:03:38 10° NW 23:05:10 18° NNW 23:05:10 18° NNW
CZ-2D R/B 4.3 23:13:19 10° NE 23:15:28 19° ENE 23:15:28 19° ENE
USA 238 4.5 23:21:57 47° NE 23:21:57 47° NE 23:27:24 10° E
CENTAUR R/B 3.3 23:22:28 56° NNE 23:22:28 56° NNE 23:29:18 10° ENE
SL-16 R/B 3.6 23:26:39 40° N 23:26:39 40° N 23:30:35 10° NNW
Cosmos 2369 Rocket 3.9 23:33:00 28° N 23:33:00 28° N 23:36:43 10° NE
NOSS 3-2 (A) 4.2 23:48:41 59° NNE 23:48:41 59° NNE 23:56:01 10° E
